Total_Precipitation_Accumulation
1.39 1.34 1.25 1.17 1.12 1.04 0.98 0.94 0.88 0.80 0.72 0.67 0.60 0.51 0.46 0.40 0.34 0.29 0.24 0.24 0.24 0.32 0.51 0.80 1.09 1.34 1.55 1.70 1.80 1.69 1.62 1.48 1.22 1.06 1.04 1.12 1.17 1.23 1.25 1.32 1.33 1.23 1.22
1.40 1.36 1.33 1.24 1.17 1.11 1.03 0.97 0.89 0.81 0.72 0.65 0.60 0.55 0.50 0.46 0.42 0.38 0.32 0.31 0.30 0.31 0.43 0.63 0.88 1.23 1.51 1.69 1.87 1.96 1.81 1.77 1.63 1.35 1.19 1.18 1.21 1.24 1.26 1.34 1.40 1.38 1.32
1.42 1.40 1.38 1.29 1.19 1.13 1.08 1.03 1.01 0.98 0.88 0.78 0.70 0.63 0.57 0.50 0.45 0.40 0.38 0.37 0.36 0.37 0.41 0.53 0.68 0.95 1.32 1.64 1.83 2.05 2.09 1.94 1.96 1.83 1.57 1.37 1.31 1.30 1.33 1.38 1.42 1.49 1.46
1.47 1.50 1.46 1.37 1.28 1.26 1.18 1.07 1.00 0.97 0.91 0.84 0.78 0.73 0.66 0.58 0.51 0.44 0.40 0.37 0.40 0.40 0.40 0.45 0.54 0.72 1.07 1.47 1.85 2.08 2.44 2.29 2.14 2.20 2.14 1.81 1.53 1.44 1.47 1.53 1.56 1.62 1.65
1.50 1.52 1.51 1.44 1.36 1.36 1.31 1.19 1.06 0.94 0.87 0.81 0.75 0.71 0.68 0.66 0.66 0.63 0.54 0.45 0.40 0.42 0.46 0.48 0.52 0.57 0.76 1.13 1.56 1.97 2.49 2.81 2.61 2.51 2.56 2.44 2.07 1.79 1.69 1.72 1.78 1.82 1.89
1.59 1.54 1.51 1.47 1.43 1.40 1.38 1.30 1.16 1.01 0.88 0.81 0.79 0.75 0.67 0.62 0.62 0.59 0.55 0.50 0.41 0.39 0.47 0.53 0.55 0.52 0.57 0.76 1.12 1.62 2.15 2.71 2.98 2.87 2.80 2.85 2.70 2.38 2.15 2.04 2.02 2.10 2.18
1.75 1.68 1.61 1.59 1.54 1.45 1.33 1.30 1.27 1.20 1.08 0.98 1.00 0.93 0.79 0.67 0.61 0.56 0.53 0.50 0.45 0.40 0.41 0.51 0.59 0.56 0.51 0.57 0.71 1.02 1.58 2.33 2.97 3.22 3.16 3.06 3.05 2.86 2.60 2.39 2.25 2.31 2.42
1.93 1.83 1.68 1.64 1.62 1.55 1.43 1.31 1.31 1.32 1.20 1.11 1.13 1.17 1.03 0.87 0.69 0.54 0.50 0.48 0.44 0.43 0.44 0.46 0.54 0.59 0.57 0.51 0.48 0.61 0.92 1.60 2.44 3.12 3.45 3.49 3.44 3.38 3.11 2.81 2.61 2.57 2.67
1.84 1.76 1.64 1.59 1.61 1.62 1.54 1.41 1.31 1.28 1.24 1.10 1.03 1.24 1.24 0.94 0.66 0.54 0.50 0.49 0.48 0.48 0.47 0.47 0.49 0.55 0.61 0.59 0.54 0.56 0.65 1.02 1.74 2.62 3.26 3.62 3.78 3.95 3.82 3.36 3.06 2.93 2.96
1.72 1.67 1.65 1.58 1.51 1.48 1.42 1.37 1.31 1.25 1.22 1.19 1.11 1.05 1.04 0.94 0.90 0.69 0.49 0.47 0.49 0.53 0.54 0.53 0.53 0.57 0.61 0.67 0.67 0.70 0.72 0.82 1.27 1.93 2.72 3.41 3.85 4.21 4.47 4.08 3.56 3.31 3.23
1.74 1.71 1.65 1.65 1.58 1.48 1.39 1.36 1.35 1.33 1.28 1.19 1.11 1.01 0.95 0.86 0.83 0.90 0.67 0.50 0.51 0.50 0.53 0.57 0.58 0.60 0.62 0.68 0.72 0.76 0.85 0.85 1.09 1.53 2.11 2.93 3.65 4.30 4.86 4.73 4.02 3.53 3.35
1.73 1.63 1.59 1.58 1.55 1.45 1.35 1.31 1.31 1.34 1.33 1.24 1.12 1.03 1.02 0.98 0.86 0.89 0.82 0.61 0.57 0.54 0.54 0.58 0.63 0.65 0.65 0.68 0.71 0.83 0.88 0.94 1.05 1.28 1.60 2.16 2.92 3.67 4.56 4.93 4.41 3.76 3.42
1.65 1.57 1.46 1.39 1.35 1.33 1.32 1.29 1.28 1.26 1.27 1.30 1.25 1.12 1.02 0.95 0.90 0.96 1.01 0.86 0.75 0.64 0.61 0.62 0.62 0.69 0.73 0.74 0.76 0.84 0.85 0.95 1.07 1.20 1.35 1.58 2.06 2.84 3.78 4.77 5.02 4.35 3.77
1.50 1.48 1.47 1.38 1.25 1.19 1.22 1.27 1.26 1.22 1.23 1.28 1.23 1.16 1.09 0.96 0.97 1.06 1.15 1.26 1.19 0.87 0.73 0.67 0.62 0.65 0.73 0.80 0.84 0.90 0.80 0.95 1.06 1.17 1.27 1.36 1.54 2.02 2.89 3.94 4.97 5.06 4.37
1.48 1.51 1.47 1.45 1.37 1.27 1.20 1.20 1.20 1.17 1.20 1.21 1.20 1.17 1.17 1.06 1.02 1.06 1.12 1.30 1.60 1.41 0.88 0.65 0.63 0.66 0.73 0.83 0.93 0.90 0.84 0.91 1.01 1.14 1.28 1.36 1.44 1.66 2.08 2.76 3.71 4.72 4.95
1.44 1.53 1.54 1.48 1.49 1.46 1.38 1.28 1.20 1.17 1.22 1.23 1.26 1.27 1.25 1.22 1.21 1.16 1.18 1.24 1.41 1.56 1.21 0.66 0.59 0.63 0.76 0.88 1.03 1.03 1.01 1.11 1.08 1.15 1.25 1.32 1.36 1.48 1.70 2.09 2.70 3.63 4.57
1.33 1.43 1.50 1.50 1.49 1.51 1.47 1.43 1.34 1.28 1.28 1.28 1.33 1.40 1.35 1.31 1.37 1.32 1.25 1.23 1.25 1.40 1.43 0.82 0.60 0.63 0.84 1.03 1.09 1.12 1.16 1.11 1.06 1.15 1.22 1.29 1.34 1.41 1.59 1.83 2.17 2.75 3.65
1.34 1.38 1.50 1.61 1.59 1.54 1.51 1.49 1.46 1.45 1.48 1.43 1.36 1.38 1.40 1.39 1.43 1.41 1.40 1.33 1.22 1.19 1.32 1.11 0.77 0.75 0.88 1.05 1.12 1.17 1.24 1.22 1.14 1.22 1.27 1.36 1.44 1.51 1.63 1.76 1.96 2.24 2.86
1.48 1.42 1.48 1.60 1.64 1.62 1.58 1.49 1.48 1.51 1.58 1.64 1.60 1.58 1.50 1.50 1.51 1.46 1.47 1.42 1.31 1.21 1.22 1.24 0.99 0.85 0.92 1.02 1.16 1.25 1.29 1.28 1.28 1.34 1.31 1.35 1.48 1.59 1.66 1.72 1.83 2.01 2.27
1.52 1.50 1.46 1.50 1.60 1.69 1.75 1.73 1.74 1.68 1.67 1.70 1.71 1.72 1.68 1.67 1.62 1.57 1.59 1.55 1.50 1.52 1.47 1.47 1.29 1.08 1.03 1.05 1.23 1.44 1.53 1.38 1.35 1.35 1.39 1.37 1.47 1.56 1.63 1.62 1.58 1.70 1.94
1.55 1.52 1.49 1.44 1.49 1.74 2.09 2.05 1.94 1.86 1.73 1.64 1.58 1.58 1.64 1.81 1.88 1.94 1.97 1.86 1.84 1.95 1.90 1.81 1.60 1.38 1.23 1.26 1.37 1.46 1.69 1.65 1.54 1.45 1.48 1.41 1.41 1.39 1.42 1.51 1.57 1.67 1.85
1.61 1.54 1.48 1.44 1.47 1.69 2.21 2.27 1.92 1.67 1.54 1.51 1.50 1.41 1.40 1.60 1.70 1.85 1.99 2.00 2.07 2.25 2.32 2.22 1.93 1.65 1.36 1.30 1.42 1.65 1.87 2.06 1.98 1.57 1.58 1.62 1.56 1.58 1.48 1.45 1.59 1.66 1.79
1.66 1.59 1.49 1.42 1.37 1.47 1.94 2.04 1.82 1.49 1.34 1.32 1.34 1.33 1.29 1.31 1.44 1.38 1.57 1.69 1.74 1.94 2.19 2.30 2.26 1.79 1.51 1.39 1.69 1.91 1.95 2.08 1.97 1.71 1.81 2.03 1.83 1.76 1.62 1.59 1.63 1.54 1.64
1.73 1.62 1.52 1.43 1.39 1.37 1.74 1.91 1.77 1.38 1.22 1.16 1.14 1.12 1.12 1.15 1.26 1.43 1.52 1.53 1.45 1.53 1.82 2.02 2.19 2.00 1.79 1.75 2.02 2.33 2.44 2.46 2.23 1.99 1.96 2.34 2.12 1.97 1.85 1.72 1.64 1.49 1.52
1.66 1.61 1.52 1.37 1.32 1.33 1.57 1.86 1.84 1.43 1.26 1.11 1.06 1.04 1.01 1.00 1.32 1.58 1.53 1.46 1.33 1.33 1.51 1.80 2.03 2.13 2.21 2.34 2.51 2.81 3.00 2.97 2.77 2.35 2.11 2.31 2.34 2.24 2.09 1.97 1.78 1.59 1.48
1.57 1.56 1.53 1.38 1.27 1.24 1.45 1.81 1.99 1.51 1.30 1.16 1.06 1.01 1.12 1.18 1.42 1.53 1.43 1.49 1.53 1.37 1.30 1.37 1.47 1.59 1.67 1.85 2.24 2.52 2.79 2.97 2.91 2.81 2.30 2.28 2.41 2.47 2.71 2.27 1.84 1.52 1.38